contact:dominique.lefevre@mio.osupytheas.fr, maurice.libes@osupytheas.fr, didier.mallarino@osupytheas.fr
Project:EMSO http://www.emso-fr.org/EMSO-France
Depth: 2436.0 m
Title:EMSO Ligure Ouest : Data MII capteur MICROCAT
DateTime_Computer,Latitude,Longitude,Temperature,Conductivity,Pressure,DateTime_Instrument
DateTime_Computer,Latitude,Longitude,degC,S m-1,dbar,DateTime_Instrument
2020-01-09T00:01:52Z,42.805,6.029,13.3024,4.59991,2469.947,2020-1-09T02:02:24Z
2020-01-09T00:04:56Z,42.805,6.029,13.2998,4.59999,2469.937,2020-1-09T02:05:28Z
2020-01-09T00:07:59Z,42.805,6.029,13.2996,4.59998,2469.9,2020-1-09T02:08:31Z
2020-01-09T00:11:02Z,42.805,6.029,13.2962,4.60002,2469.96,2020-1-09T02:11:34Z
2020-01-09T00:14:05Z,42.805,6.029,13.2961,4.59993,2469.97,2020-1-09T02:14:37Z
2020-01-09T00:17:08Z,42.805,6.029,13.2964,4.59982,2469.984,2020-1-09T02:17:40Z
2020-01-09T00:20:12Z,42.805,6.029,13.2963,4.59985,2469.937,2020-1-09T02:20:44Z
2020-01-09T00:23:15Z,42.805,6.029,13.2964,4.59986,2469.923,2020-1-09T02:23:47Z
2020-01-09T00:26:18Z,42.805,6.029,13.2961,4.59978,2469.923,2020-1-09T02:26:50Z
2020-01-09T00:29:22Z,42.805,6.029,13.2962,4.59979,2469.97,2020-1-09T02:29:54Z
2020-01-09T00:32:25Z,42.805,6.029,13.2963,4.59976,2469.96,2020-1-09T02:32:57Z
2020-01-09T00:35:28Z,42.805,6.029,13.2965,4.59973,2469.923,2020-1-09T02:36:00Z
2020-01-09T00:38:31Z,42.805,6.029,13.2966,4.59975,2469.947,2020-1-09T02:39:03Z
2020-01-09T00:41:34Z,42.805,6.029,13.2964,4.59970,2469.947,2020-1-09T02:42:06Z
2020-01-09T00:44:38Z,42.805,6.029,13.2965,4.59970,2469.947,2020-1-09T02:45:10Z
2020-01-09T00:47:41Z,42.805,6.029,13.2964,4.59968,2469.923,2020-1-09T02:48:13Z
2020-01-09T00:50:44Z,42.805,6.029,13.2962,4.59966,2469.923,2020-1-09T02:51:16Z
2020-01-09T00:53:48Z,42.805,6.029,13.2962,4.59968,2469.984,2020-1-09T02:54:19Z
2020-01-09T00:56:51Z,42.805,6.029,13.2963,4.59972,2469.914,2020-1-09T02:57:23Z
2020-01-09T00:59:54Z,42.805,6.029,13.2961,4.59968,2469.923,2020-1-09T03:00:26Z
2020-01-09T01:02:57Z,42.805,6.029,13.2963,4.59967,2469.97,2020-1-09T03:03:29Z
2020-01-09T01:06:00Z,42.805,6.029,13.2963,4.59967,2469.923,2020-1-09T03:06:32Z
2020-01-09T01:09:04Z,42.805,6.029,13.2960,4.59976,2469.947,2020-1-09T03:09:36Z
2020-01-09T01:12:07Z,42.805,6.029,13.2963,4.59970,2469.984,2020-1-09T03:12:39Z
2020-01-09T01:15:10Z,42.805,6.029,13.2967,4.59970,2469.97,2020-1-09T03:15:42Z
2020-01-09T01:18:13Z,42.805,6.029,13.2962,4.59966,2469.947,2020-1-09T03:18:45Z
2020-01-09T01:21:17Z,42.805,6.029,13.2962,4.59969,2469.96,2020-1-09T03:21:49Z
2020-01-09T01:24:20Z,42.805,6.029,13.2964,4.59969,2469.993,2020-1-09T03:24:52Z
2020-01-09T01:27:23Z,42.805,6.029,13.2961,4.59967,2469.993,2020-1-09T03:27:55Z
2020-01-09T01:30:26Z,42.805,6.029,13.2962,4.59968,2469.97,2020-1-09T03:30:58Z
2020-01-09T01:33:30Z,42.805,6.029,13.2961,4.59967,2469.947,2020-1-09T03:34:02Z
2020-01-09T01:36:33Z,42.805,6.029,13.2963,4.59968,2470.017,2020-1-09T03:37:05Z
2020-01-09T01:39:36Z,42.805,6.029,13.2961,4.59966,2470.03,2020-1-09T03:40:08Z
2020-01-09T01:42:39Z,42.805,6.029,13.2961,4.59968,2469.97,2020-1-09T03:43:11Z
2020-01-09T01:45:43Z,42.805,6.029,13.2963,4.59966,2469.96,2020-1-09T03:46:15Z
2020-01-09T01:48:46Z,42.805,6.029,13.2958,4.59966,2469.97,2020-1-09T03:49:18Z
2020-01-09T01:51:49Z,42.805,6.029,13.2962,4.59966,2470.007,2020-1-09T03:52:21Z
2020-01-09T01:54:53Z,42.805,6.029,13.2961,4.59966,2469.993,2020-1-09T03:55:25Z
2020-01-09T01:57:56Z,42.805,6.029,13.2965,4.59966,2470.007,2020-1-09T03:58:28Z
2020-01-09T02:00:59Z,42.805,6.029,13.2963,4.59968,2469.947,2020-1-09T04:01:31Z
2020-01-09T02:04:02Z,42.805,6.029,13.2962,4.59967,2469.993,2020-1-09T04:04:34Z
2020-01-09T02:07:06Z,42.805,6.029,13.2961,4.59966,2469.993,2020-1-09T04:07:38Z
2020-01-09T02:10:09Z,42.805,6.029,13.2964,4.59966,2469.97,2020-1-09T04:10:41Z
2020-01-09T02:13:12Z,42.805,6.029,13.2961,4.59966,2470.017,2020-1-09T04:13:44Z
2020-01-09T02:16:15Z,42.805,6.029,13.2964,4.59968,2470.03,2020-1-09T04:16:47Z
2020-01-09T02:19:18Z,42.805,6.029,13.2965,4.59969,2470.007,2020-1-09T04:19:50Z
2020-01-09T02:22:22Z,42.805,6.029,13.2959,4.59966,2470.04,2020-1-09T04:22:54Z
2020-01-09T02:25:25Z,42.805,6.029,13.2961,4.59968,2470.017,2020-1-09T04:25:57Z
2020-01-09T02:28:28Z,42.805,6.029,13.2963,4.59967,2470.04,2020-1-09T04:29:00Z
2020-01-09T02:31:31Z,42.805,6.029,13.2964,4.59968,2469.993,2020-1-09T04:32:03Z
2020-01-09T02:34:35Z,42.805,6.029,13.2964,4.59967,2469.993,2020-1-09T04:35:07Z
2020-01-09T02:37:38Z,42.805,6.029,13.2965,4.59968,2470.03,2020-1-09T04:38:10Z
2020-01-09T02:40:41Z,42.805,6.029,13.2962,4.59966,2470.017,2020-1-09T04:41:13Z
2020-01-09T02:43:44Z,42.805,6.029,13.2961,4.59964,2470.017,2020-1-09T04:44:16Z
2020-01-09T02:46:48Z,42.805,6.029,13.2966,4.59966,2469.993,2020-1-09T04:47:20Z
2020-01-09T02:49:51Z,42.805,6.029,13.2963,4.59966,2470.04,2020-1-09T04:50:23Z
2020-01-09T02:52:54Z,42.805,6.029,13.2965,4.59966,2470.053,2020-1-09T04:53:26Z
2020-01-09T02:55:57Z,42.805,6.029,13.2961,4.59968,2470.053,2020-1-09T04:56:29Z
2020-01-09T02:59:01Z,42.805,6.029,13.2964,4.59969,2470.017,2020-1-09T04:59:33Z
2020-01-09T03:02:04Z,42.805,6.029,13.2963,4.59969,2470.063,2020-1-09T05:02:36Z
2020-01-09T03:05:07Z,42.805,6.029,13.2962,4.59969,2470.053,2020-1-09T05:05:39Z
2020-01-09T03:08:10Z,42.805,6.029,13.2966,4.59966,2470.017,2020-1-09T05:08:42Z
2020-01-09T03:11:14Z,42.805,6.029,13.2964,4.59968,2470.03,2020-1-09T05:11:46Z
2020-01-09T03:14:17Z,42.805,6.029,13.2962,4.59964,2469.993,2020-1-09T05:14:49Z
2020-01-09T03:17:20Z,42.805,6.029,13.2961,4.59966,2470.017,2020-1-09T05:17:52Z
2020-01-09T03:20:24Z,42.805,6.029,13.2959,4.59964,2470.063,2020-1-09T05:20:56Z
2020-01-09T03:23:27Z,42.805,6.029,13.2964,4.59966,2470.04,2020-1-09T05:23:59Z
2020-01-09T03:26:30Z,42.805,6.029,13.2966,4.59967,2470.063,2020-1-09T05:27:02Z
2020-01-09T03:29:33Z,42.805,6.029,13.2964,4.59964,2470.077,2020-1-09T05:30:05Z
2020-01-09T03:32:37Z,42.805,6.029,13.2964,4.59968,2470.063,2020-1-09T05:33:09Z
2020-01-09T03:35:40Z,42.805,6.029,13.2965,4.59968,2470.077,2020-1-09T05:36:12Z
2020-01-09T03:38:43Z,42.805,6.029,13.2961,4.59968,2470.087,2020-1-09T05:39:15Z
2020-01-09T03:41:46Z,42.805,6.029,13.2961,4.59965,2470.063,2020-1-09T05:42:18Z
2020-01-09T03:44:50Z,42.805,6.029,13.2967,4.59966,2470.063,2020-1-09T05:45:22Z
2020-01-09T03:47:53Z,42.805,6.029,13.2965,4.59964,2470.04,2020-1-09T05:48:25Z
2020-01-09T03:50:56Z,42.805,6.029,13.2965,4.59966,2470.1,2020-1-09T05:51:28Z
2020-01-09T03:53:59Z,42.805,6.029,13.2959,4.59964,2470.077,2020-1-09T05:54:31Z
2020-01-09T03:57:03Z,42.805,6.029,13.2962,4.59966,2470.124,2020-1-09T05:57:35Z
2020-01-09T04:00:06Z,42.805,6.029,13.2964,4.59966,2470.1,2020-1-09T06:00:38Z
2020-01-09T04:03:09Z,42.805,6.029,13.2961,4.59966,2470.063,2020-1-09T06:03:41Z
2020-01-09T04:06:12Z,42.805,6.029,13.2961,4.59966,2470.11,2020-1-09T06:06:44Z
2020-01-09T04:09:15Z,42.805,6.029,13.2961,4.59967,2470.1,2020-1-09T06:09:47Z
2020-01-09T04:12:19Z,42.805,6.029,13.2965,4.59965,2470.11,2020-1-09T06:12:51Z
2020-01-09T04:15:22Z,42.805,6.029,13.2964,4.59967,2470.087,2020-1-09T06:15:54Z
2020-01-09T04:18:25Z,42.805,6.029,13.2966,4.59968,2470.124,2020-1-09T06:18:57Z
2020-01-09T04:21:28Z,42.805,6.029,13.2966,4.59963,2470.11,2020-1-09T06:22:00Z
2020-01-09T04:24:32Z,42.805,6.029,13.2967,4.59964,2470.124,2020-1-09T06:25:04Z
2020-01-09T04:27:35Z,42.805,6.029,13.2962,4.59966,2470.11,2020-1-09T06:28:07Z
2020-01-09T04:30:38Z,42.805,6.029,13.2964,4.59965,2470.11,2020-1-09T06:31:10Z
2020-01-09T04:33:41Z,42.805,6.029,13.2961,4.59964,2470.124,2020-1-09T06:34:13Z
2020-01-09T04:36:45Z,42.805,6.029,13.2964,4.59964,2470.124,2020-1-09T06:37:17Z
2020-01-09T04:39:48Z,42.805,6.029,13.2961,4.59964,2470.11,2020-1-09T06:40:20Z
2020-01-09T04:42:51Z,42.805,6.029,13.2963,4.59967,2470.1,2020-1-09T06:43:23Z
2020-01-09T04:45:54Z,42.805,6.029,13.2960,4.59966,2470.133,2020-1-09T06:46:26Z
2020-01-09T04:48:58Z,42.805,6.029,13.2961,4.59964,2470.124,2020-1-09T06:49:30Z
2020-01-09T04:52:01Z,42.805,6.029,13.2963,4.59964,2470.147,2020-1-09T06:52:33Z
2020-01-09T04:55:04Z,42.805,6.029,13.2962,4.59967,2470.147,2020-1-09T06:55:36Z
2020-01-09T04:58:07Z,42.805,6.029,13.2965,4.59965,2470.147,2020-1-09T06:58:39Z
2020-01-09T05:01:11Z,42.805,6.029,13.2965,4.59966,2470.124,2020-1-09T07:01:43Z
2020-01-09T05:04:14Z,42.805,6.029,13.2967,4.59963,2470.124,2020-1-09T07:04:46Z
2020-01-09T05:07:17Z,42.805,6.029,13.2968,4.59963,2470.133,2020-1-09T07:07:49Z
2020-01-09T05:10:20Z,42.805,6.029,13.2965,4.59963,2470.147,2020-1-09T07:10:52Z
2020-01-09T05:13:24Z,42.805,6.029,13.2964,4.59967,2470.133,2020-1-09T07:13:56Z
2020-01-09T05:16:27Z,42.805,6.029,13.2964,4.59964,2470.147,2020-1-09T07:16:59Z
2020-01-09T05:19:30Z,42.805,6.029,13.2964,4.59964,2470.133,2020-1-09T07:20:02Z
2020-01-09T05:22:33Z,42.805,6.029,13.2964,4.59966,2470.147,2020-1-09T07:23:05Z
2020-01-09T05:25:37Z,42.805,6.029,13.2964,4.59964,2470.156,2020-1-09T07:26:09Z
2020-01-09T05:28:40Z,42.805,6.029,13.2967,4.59964,2470.194,2020-1-09T07:29:12Z
2020-01-09T05:31:43Z,42.805,6.029,13.2965,4.59966,2470.156,2020-1-09T07:32:15Z
2020-01-09T05:34:46Z,42.805,6.029,13.2965,4.59964,2470.156,2020-1-09T07:35:18Z
2020-01-09T05:37:49Z,42.805,6.029,13.2966,4.59965,2470.156,2020-1-09T07:38:22Z
2020-01-09T05:40:53Z,42.805,6.029,13.2964,4.59966,2470.156,2020-1-09T07:41:25Z
2020-01-09T05:43:56Z,42.805,6.029,13.2964,4.59966,2470.11,2020-1-09T07:44:28Z
2020-01-09T05:46:59Z,42.805,6.029,13.2967,4.59966,2470.156,2020-1-09T07:47:31Z
2020-01-09T05:50:02Z,42.805,6.029,13.2967,4.59967,2470.18,2020-1-09T07:50:34Z
2020-01-09T05:53:06Z,42.805,6.029,13.2966,4.59965,2470.194,2020-1-09T07:53:38Z
2020-01-09T05:56:09Z,42.805,6.029,13.2964,4.59965,2470.194,2020-1-09T07:56:41Z
2020-01-09T05:59:12Z,42.805,6.029,13.2963,4.59966,2470.194,2020-1-09T07:59:44Z
2020-01-09T06:02:15Z,42.805,6.029,13.2967,4.59965,2470.18,2020-1-09T08:02:47Z
2020-01-09T06:05:19Z,42.805,6.029,13.2968,4.59967,2470.194,2020-1-09T08:05:51Z
2020-01-09T06:08:22Z,42.805,6.029,13.2968,4.59965,2470.147,2020-1-09T08:08:54Z
2020-01-09T06:11:25Z,42.805,6.029,13.2964,4.59974,2470.171,2020-1-09T08:11:57Z
2020-01-09T06:14:28Z,42.805,6.029,13.2967,4.59966,2470.156,2020-1-09T08:15:00Z
2020-01-09T06:17:32Z,42.805,6.029,13.2968,4.59966,2470.194,2020-1-09T08:18:04Z
2020-01-09T06:20:35Z,42.805,6.029,13.2967,4.59967,2470.147,2020-1-09T08:21:07Z
2020-01-09T06:23:38Z,42.805,6.029,13.2967,4.59968,2470.171,2020-1-09T08:24:10Z
2020-01-09T06:26:41Z,42.805,6.029,13.2967,4.59973,2470.156,2020-1-09T08:27:13Z
2020-01-09T06:29:45Z,42.805,6.029,13.2967,4.59969,2470.147,2020-1-09T08:30:17Z
2020-01-09T06:32:48Z,42.805,6.029,13.2967,4.59972,2470.194,2020-1-09T08:33:20Z
2020-01-09T06:35:51Z,42.805,6.029,13.2968,4.59968,2470.18,2020-1-09T08:36:23Z
2020-01-09T06:38:54Z,42.805,6.029,13.2968,4.59970,2470.133,2020-1-09T08:39:26Z
2020-01-09T06:41:57Z,42.805,6.029,13.2968,4.59968,2470.18,2020-1-09T08:42:29Z
2020-01-09T06:45:01Z,42.805,6.029,13.2966,4.59973,2470.147,2020-1-09T08:45:33Z
2020-01-09T06:48:04Z,42.805,6.029,13.2968,4.59971,2470.194,2020-1-09T08:48:36Z
2020-01-09T06:51:07Z,42.805,6.029,13.2964,4.59973,2470.156,2020-1-09T08:51:39Z
2020-01-09T06:54:11Z,42.805,6.029,13.2965,4.59980,2470.217,2020-1-09T08:54:43Z
2020-01-09T06:57:14Z,42.805,6.029,13.2968,4.59976,2470.143,2020-1-09T08:57:46Z
2020-01-09T07:00:18Z,42.805,6.029,13.2968,4.59977,2470.18,2020-1-09T09:00:50Z
2020-01-09T07:03:21Z,42.805,6.029,13.2978,4.59975,2470.156,2020-1-09T09:03:53Z
2020-01-09T07:06:24Z,42.805,6.029,13.2986,4.60006,2470.156,2020-1-09T09:06:56Z
2020-01-09T07:09:27Z,42.805,6.029,13.2983,4.59977,2470.18,2020-1-09T09:09:59Z
2020-01-09T07:12:31Z,42.805,6.029,13.2981,4.59978,2470.18,2020-1-09T09:13:03Z
2020-01-09T07:15:34Z,42.805,6.029,13.2991,4.59992,2470.203,2020-1-09T09:16:06Z
2020-01-09T07:18:37Z,42.805,6.029,13.3000,4.60016,2470.156,2020-1-09T09:19:09Z
2020-01-09T07:21:40Z,42.805,6.029,13.3010,4.60009,2470.156,2020-1-09T09:22:12Z
2020-01-09T07:24:44Z,42.805,6.029,13.3009,4.60032,2470.11,2020-1-09T09:25:16Z
2020-01-09T07:27:47Z,42.805,6.029,13.2997,4.60046,2470.156,2020-1-09T09:28:19Z
2020-01-09T07:30:50Z,42.805,6.029,13.2994,4.60006,2470.156,2020-1-09T09:31:22Z
2020-01-09T07:33:53Z,42.805,6.029,13.2996,4.60046,2470.133,2020-1-09T09:34:25Z
2020-01-09T07:36:57Z,42.805,6.029,13.2994,4.60055,2470.156,2020-1-09T09:37:29Z
2020-01-09T07:40:00Z,42.805,6.029,13.3004,4.60056,2470.133,2020-1-09T09:40:32Z
2020-01-09T07:43:03Z,42.805,6.029,13.2991,4.60057,2470.147,2020-1-09T09:43:35Z
2020-01-09T07:46:06Z,42.805,6.029,13.2993,4.60039,2470.171,2020-1-09T09:46:38Z
2020-01-09T07:49:10Z,42.805,6.029,13.2987,4.60060,2470.156,2020-1-09T09:49:42Z
2020-01-09T07:52:13Z,42.805,6.029,13.3005,4.60022,2470.1,2020-1-09T09:52:45Z
2020-01-09T07:55:16Z,42.805,6.029,13.2991,4.60062,2470.171,2020-1-09T09:55:48Z
2020-01-09T07:58:19Z,42.805,6.029,13.2980,4.60049,2470.156,2020-1-09T09:58:51Z
2020-01-09T08:01:23Z,42.805,6.029,13.2981,4.60072,2470.133,2020-1-09T10:01:55Z
2020-01-09T08:04:26Z,42.805,6.029,13.2986,4.60034,2470.156,2020-1-09T10:04:58Z
2020-01-09T08:07:29Z,42.805,6.029,13.2996,4.60069,2470.156,2020-1-09T10:08:01Z
2020-01-09T08:10:32Z,42.805,6.029,13.2993,4.60063,2470.171,2020-1-09T10:11:04Z
2020-01-09T08:13:36Z,42.805,6.029,13.2999,4.60030,2470.156,2020-1-09T10:14:08Z
2020-01-09T08:16:39Z,42.805,6.029,13.2996,4.60039,2470.133,2020-1-09T10:17:11Z
2020-01-09T08:19:42Z,42.805,6.029,13.2984,4.60060,2470.11,2020-1-09T10:20:14Z
2020-01-09T08:22:45Z,42.805,6.029,13.2977,4.60059,2470.147,2020-1-09T10:23:17Z
2020-01-09T08:25:48Z,42.805,6.029,13.2984,4.60054,2470.171,2020-1-09T10:26:20Z
2020-01-09T08:28:52Z,42.805,6.029,13.2983,4.60052,2470.133,2020-1-09T10:29:24Z
2020-01-09T08:31:55Z,42.805,6.029,13.3003,4.60017,2470.133,2020-1-09T10:32:27Z
2020-01-09T08:34:58Z,42.805,6.029,13.2998,4.60021,2470.124,2020-1-09T10:35:30Z
2020-01-09T08:38:02Z,42.805,6.029,13.2991,4.60029,2470.184,2020-1-09T10:38:34Z
2020-01-09T08:41:05Z,42.805,6.029,13.2982,4.60052,2470.11,2020-1-09T10:41:37Z
2020-01-09T08:44:08Z,42.805,6.029,13.2993,4.60033,2470.171,2020-1-09T10:44:40Z
2020-01-09T08:47:11Z,42.805,6.029,13.2986,4.60029,2470.133,2020-1-09T10:47:43Z
2020-01-09T08:50:14Z,42.805,6.029,13.3004,4.60036,2470.11,2020-1-09T10:50:46Z
2020-01-09T08:53:18Z,42.805,6.029,13.2979,4.60046,2470.147,2020-1-09T10:53:50Z
2020-01-09T08:56:21Z,42.805,6.029,13.3004,4.60014,2470.1,2020-1-09T10:56:53Z
2020-01-09T08:59:24Z,42.805,6.029,13.2983,4.60023,2470.133,2020-1-09T10:59:56Z
2020-01-09T09:02:27Z,42.805,6.029,13.2980,4.60010,2470.124,2020-1-09T11:03:00Z
2020-01-09T09:05:31Z,42.805,6.029,13.2976,4.60009,2470.124,2020-1-09T11:06:03Z
2020-01-09T09:08:34Z,42.805,6.029,13.2976,4.60064,2470.124,2020-1-09T11:09:06Z
2020-01-09T09:11:37Z,42.805,6.029,13.2990,4.60043,2470.133,2020-1-09T11:12:09Z
2020-01-09T09:14:40Z,42.805,6.029,13.3003,4.60061,2470.147,2020-1-09T11:15:12Z
2020-01-09T09:17:44Z,42.805,6.029,13.2998,4.60064,2470.124,2020-1-09T11:18:16Z
2020-01-09T09:20:47Z,42.805,6.029,13.3014,4.60027,2470.087,2020-1-09T11:21:19Z
2020-01-09T09:23:50Z,42.805,6.029,13.2999,4.60048,2470.11,2020-1-09T11:24:22Z
2020-01-09T09:26:53Z,42.805,6.029,13.2998,4.60039,2470.124,2020-1-09T11:27:25Z
2020-01-09T09:29:57Z,42.805,6.029,13.3017,4.60039,2470.1,2020-1-09T11:30:29Z
2020-01-09T09:33:00Z,42.805,6.029,13.3010,4.60029,2470.11,2020-1-09T11:33:32Z
2020-01-09T09:36:03Z,42.805,6.029,13.3020,4.60041,2470.1,2020-1-09T11:36:35Z
2020-01-09T09:39:06Z,42.805,6.029,13.3004,4.60057,2470.087,2020-1-09T11:39:38Z
2020-01-09T09:42:10Z,42.805,6.029,13.3017,4.60040,2470.063,2020-1-09T11:42:42Z
2020-01-09T09:45:13Z,42.805,6.029,13.3013,4.60036,2470.11,2020-1-09T11:45:45Z
2020-01-09T09:48:16Z,42.805,6.029,13.3008,4.60067,2470.1,2020-1-09T11:48:48Z
2020-01-09T09:51:19Z,42.805,6.029,13.2997,4.60050,2470.077,2020-1-09T11:51:51Z
2020-01-09T09:54:23Z,42.805,6.029,13.3009,4.59998,2470.124,2020-1-09T11:54:55Z
2020-01-09T09:57:26Z,42.805,6.029,13.3001,4.60045,2470.11,2020-1-09T11:57:58Z
2020-01-09T10:00:29Z,42.805,6.029,13.2992,4.60047,2470.1,2020-1-09T12:01:01Z
2020-01-09T10:03:33Z,42.805,6.029,13.3000,4.60057,2470.077,2020-1-09T12:04:05Z
2020-01-09T10:06:36Z,42.805,6.029,13.3004,4.60011,2470.133,2020-1-09T12:07:08Z
2020-01-09T10:09:39Z,42.805,6.029,13.2996,4.60029,2470.063,2020-1-09T12:10:11Z
2020-01-09T10:12:42Z,42.805,6.029,13.3006,4.60054,2470.077,2020-1-09T12:13:14Z
2020-01-09T10:15:45Z,42.805,6.029,13.3018,4.60037,2470.1,2020-1-09T12:16:17Z
2020-01-09T10:18:49Z,42.805,6.029,13.2988,4.60052,2470.087,2020-1-09T12:19:21Z
2020-01-09T10:21:52Z,42.805,6.029,13.3005,4.60034,2470.077,2020-1-09T12:22:24Z
2020-01-09T10:24:55Z,42.805,6.029,13.3006,4.60033,2470.1,2020-1-09T12:25:27Z
2020-01-09T10:27:59Z,42.805,6.029,13.3024,4.60055,2470.1,2020-1-09T12:28:31Z
2020-01-09T10:31:02Z,42.805,6.029,13.3031,4.60060,2470.063,2020-1-09T12:31:34Z
2020-01-09T10:34:05Z,42.805,6.029,13.3036,4.60044,2470.063,2020-1-09T12:34:37Z
2020-01-09T10:37:08Z,42.805,6.029,13.3028,4.60029,2470.063,2020-1-09T12:37:40Z
2020-01-09T10:40:12Z,42.805,6.029,13.3009,4.60013,2470.063,2020-1-09T12:40:44Z
2020-01-09T10:43:15Z,42.805,6.029,13.2976,4.60040,2470.077,2020-1-09T12:43:47Z
2020-01-09T10:46:18Z,42.805,6.029,13.2996,4.60088,2470.1,2020-1-09T12:46:50Z
2020-01-09T10:49:21Z,42.805,6.029,13.3007,4.60062,2470.04,2020-1-09T12:49:53Z
2020-01-09T10:52:25Z,42.805,6.029,13.2996,4.60030,2470.04,2020-1-09T12:52:57Z
2020-01-09T10:55:28Z,42.805,6.029,13.2995,4.60014,2470.053,2020-1-09T12:56:00Z
2020-01-09T10:58:31Z,42.805,6.029,13.3018,4.60011,2470.1,2020-1-09T12:59:03Z
2020-01-09T11:01:34Z,42.805,6.029,13.3016,4.60036,2470.077,2020-1-09T13:02:06Z
2020-01-09T11:04:38Z,42.805,6.029,13.3018,4.60024,2470.053,2020-1-09T13:05:10Z
2020-01-09T11:07:41Z,42.805,6.029,13.3035,4.60009,2470.04,2020-1-09T13:08:13Z
2020-01-09T11:10:44Z,42.805,6.029,13.3026,4.59982,2470.053,2020-1-09T13:11:16Z
2020-01-09T11:13:47Z,42.805,6.029,13.2998,4.59995,2470.053,2020-1-09T13:14:19Z
2020-01-09T11:16:51Z,42.805,6.029,13.3006,4.60027,2470.017,2020-1-09T13:17:23Z
2020-01-09T11:19:54Z,42.805,6.029,13.3005,4.60010,2470.017,2020-1-09T13:20:26Z
2020-01-09T11:22:57Z,42.805,6.029,13.3010,4.59989,2470.04,2020-1-09T13:23:29Z
2020-01-09T11:26:00Z,42.805,6.029,13.3003,4.60043,2470.007,2020-1-09T13:26:32Z
2020-01-09T11:29:04Z,42.805,6.029,13.3004,4.59996,2470.03,2020-1-09T13:29:36Z
2020-01-09T11:32:07Z,42.805,6.029,13.3009,4.59991,2470.03,2020-1-09T13:32:39Z
2020-01-09T11:35:10Z,42.805,6.029,13.2994,4.60001,2470.053,2020-1-09T13:35:42Z
2020-01-09T11:38:13Z,42.805,6.029,13.2992,4.60001,2470.04,2020-1-09T13:38:45Z
2020-01-09T11:41:16Z,42.805,6.029,13.3009,4.59991,2470.053,2020-1-09T13:41:48Z
2020-01-09T11:44:20Z,42.805,6.029,13.3018,4.59992,2470.04,2020-1-09T13:44:52Z
2020-01-09T11:47:23Z,42.805,6.029,13.3006,4.59988,2470.007,2020-1-09T13:47:55Z
2020-01-09T11:50:26Z,42.805,6.029,13.3003,4.59997,2470.077,2020-1-09T13:50:58Z
2020-01-09T11:53:30Z,42.805,6.029,13.3004,4.60000,2470.03,2020-1-09T13:54:02Z
2020-01-09T11:56:33Z,42.805,6.029,13.2996,4.59994,2470.03,2020-1-09T13:57:05Z
2020-01-09T11:59:36Z,42.805,6.029,13.3001,4.59994,2470.053,2020-1-09T14:00:08Z
2020-01-09T12:02:39Z,42.805,6.029,13.2996,4.59996,2470.03,2020-1-09T14:03:11Z
2020-01-09T12:05:42Z,42.805,6.029,13.2994,4.60006,2470.007,2020-1-09T14:06:14Z
2020-01-09T12:08:46Z,42.805,6.029,13.2990,4.59992,2470.007,2020-1-09T14:09:18Z
2020-01-09T12:11:49Z,42.805,6.029,13.2999,4.59987,2470.017,2020-1-09T14:12:21Z
2020-01-09T12:14:52Z,42.805,6.029,13.3003,4.59990,2470.007,2020-1-09T14:15:24Z
2020-01-09T12:17:55Z,42.805,6.029,13.2991,4.59988,2469.993,2020-1-09T14:18:27Z
2020-01-09T12:20:59Z,42.805,6.029,13.2993,4.60003,2469.993,2020-1-09T14:21:31Z
2020-01-09T12:24:02Z,42.805,6.029,13.3034,4.59991,2470.007,2020-1-09T14:24:34Z
2020-01-09T12:27:05Z,42.805,6.029,13.2991,4.59993,2469.97,2020-1-09T14:27:37Z
2020-01-09T12:30:08Z,42.805,6.029,13.3019,4.59994,2470.007,2020-1-09T14:30:40Z
2020-01-09T12:33:12Z,42.805,6.029,13.3000,4.59999,2469.993,2020-1-09T14:33:44Z
2020-01-09T12:36:15Z,42.805,6.029,13.3005,4.59993,2469.993,2020-1-09T14:36:47Z
2020-01-09T12:39:18Z,42.805,6.029,13.3011,4.59983,2470.007,2020-1-09T14:39:50Z
2020-01-09T12:42:21Z,42.805,6.029,13.2990,4.59985,2470.007,2020-1-09T14:42:53Z
2020-01-09T12:45:25Z,42.805,6.029,13.2994,4.59989,2470.017,2020-1-09T14:45:57Z
2020-01-09T12:48:28Z,42.805,6.029,13.2984,4.59987,2470.007,2020-1-09T14:49:00Z
2020-01-09T12:51:31Z,42.805,6.029,13.2986,4.59986,2469.984,2020-1-09T14:52:03Z
2020-01-09T12:54:34Z,42.805,6.029,13.2992,4.59990,2469.947,2020-1-09T14:55:06Z
2020-01-09T12:57:38Z,42.805,6.029,13.3009,4.59988,2469.947,2020-1-09T14:58:10Z
2020-01-09T13:00:41Z,42.805,6.029,13.2990,4.59986,2469.956,2020-1-09T15:01:13Z
2020-01-09T13:03:44Z,42.805,6.029,13.2983,4.59987,2469.979,2020-1-09T15:04:16Z
2020-01-09T13:06:47Z,42.805,6.029,13.3006,4.59988,2469.984,2020-1-09T15:07:19Z
2020-01-09T13:09:50Z,42.805,6.029,13.2985,4.59987,2469.97,2020-1-09T15:10:22Z
2020-01-09T13:12:54Z,42.805,6.029,13.2989,4.59983,2470.03,2020-1-09T15:13:26Z
2020-01-09T13:15:57Z,42.805,6.029,13.2996,4.59980,2469.993,2020-1-09T15:16:29Z
2020-01-09T13:19:00Z,42.805,6.029,13.2989,4.59983,2469.993,2020-1-09T15:19:32Z
2020-01-09T13:22:03Z,42.805,6.029,13.3006,4.59991,2469.984,2020-1-09T15:22:35Z
2020-01-09T13:25:07Z,42.805,6.029,13.2994,4.60001,2469.97,2020-1-09T15:25:39Z
2020-01-09T13:28:10Z,42.805,6.029,13.2996,4.59985,2469.97,2020-1-09T15:28:42Z
2020-01-09T13:31:13Z,42.805,6.029,13.2991,4.59993,2469.984,2020-1-09T15:31:45Z
2020-01-09T13:34:17Z,42.805,6.029,13.2991,4.59990,2469.96,2020-1-09T15:34:49Z
2020-01-09T13:37:20Z,42.805,6.029,13.2990,4.59991,2469.984,2020-1-09T15:37:52Z
2020-01-09T13:40:23Z,42.805,6.029,13.2996,4.59990,2469.984,2020-1-09T15:40:55Z
2020-01-09T13:43:27Z,42.805,6.029,13.2986,4.59988,2469.984,2020-1-09T15:43:59Z
2020-01-09T13:46:30Z,42.805,6.029,13.2991,4.59993,2469.97,2020-1-09T15:47:02Z
2020-01-09T13:49:33Z,42.805,6.029,13.3000,4.59997,2469.993,2020-1-09T15:50:05Z
2020-01-09T13:52:36Z,42.805,6.029,13.2990,4.59997,2469.96,2020-1-09T15:53:08Z
2020-01-09T13:55:40Z,42.805,6.029,13.3041,4.59997,2469.97,2020-1-09T15:56:12Z
2020-01-09T13:58:43Z,42.805,6.029,13.3025,4.60003,2469.97,2020-1-09T15:59:15Z
2020-01-09T14:01:46Z,42.805,6.029,13.3001,4.59988,2469.97,2020-1-09T16:02:18Z
2020-01-09T14:04:49Z,42.805,6.029,13.2998,4.59996,2469.993,2020-1-09T16:05:21Z
2020-01-09T14:07:53Z,42.805,6.029,13.2989,4.59993,2470.007,2020-1-09T16:08:25Z
2020-01-09T14:10:56Z,42.805,6.029,13.2997,4.59999,2469.993,2020-1-09T16:11:28Z
2020-01-09T14:13:59Z,42.805,6.029,13.2989,4.59981,2469.993,2020-1-09T16:14:31Z
2020-01-09T14:17:02Z,42.805,6.029,13.2987,4.59990,2469.993,2020-1-09T16:17:34Z
2020-01-09T14:20:06Z,42.805,6.029,13.2991,4.59995,2469.947,2020-1-09T16:20:38Z
2020-01-09T14:23:09Z,42.805,6.029,13.2986,4.59981,2469.993,2020-1-09T16:23:41Z
2020-01-09T14:26:12Z,42.805,6.029,13.2991,4.59985,2470.007,2020-1-09T16:26:44Z
2020-01-09T14:29:15Z,42.805,6.029,13.2986,4.59981,2469.984,2020-1-09T16:29:47Z
2020-01-09T14:32:19Z,42.805,6.029,13.2990,4.60003,2470.007,2020-1-09T16:32:51Z
2020-01-09T14:35:22Z,42.805,6.029,13.2996,4.59986,2469.993,2020-1-09T16:35:54Z
2020-01-09T14:38:25Z,42.805,6.029,13.2993,4.59996,2469.993,2020-1-09T16:38:57Z
2020-01-09T14:41:28Z,42.805,6.029,13.3037,4.59982,2469.993,2020-1-09T16:42:00Z
2020-01-09T14:44:32Z,42.805,6.029,13.2986,4.59993,2469.993,2020-1-09T16:45:04Z
2020-01-09T14:47:35Z,42.805,6.029,13.2998,4.59989,2469.984,2020-1-09T16:48:07Z
2020-01-09T14:50:38Z,42.805,6.029,13.3005,4.59998,2470.03,2020-1-09T16:51:10Z
2020-01-09T14:53:42Z,42.805,6.029,13.2988,4.59988,2469.993,2020-1-09T16:54:14Z
2020-01-09T14:56:45Z,42.805,6.029,13.2982,4.59990,2469.993,2020-1-09T16:57:17Z
2020-01-09T14:59:48Z,42.805,6.029,13.2987,4.59986,2469.993,2020-1-09T17:00:20Z
2020-01-09T15:02:51Z,42.805,6.029,13.2996,4.59986,2469.984,2020-1-09T17:03:23Z
2020-01-09T15:05:54Z,42.805,6.029,13.3038,4.60027,2470.03,2020-1-09T17:06:27Z
2020-01-09T15:08:58Z,42.805,6.029,13.2998,4.60000,2469.97,2020-1-09T17:09:30Z
2020-01-09T15:12:01Z,42.805,6.029,13.2985,4.60009,2470.007,2020-1-09T17:12:33Z
2020-01-09T15:15:04Z,42.805,6.029,13.2994,4.60023,2469.984,2020-1-09T17:15:36Z